Location: Huntsville
(41.2590°N, 111.7678°W)
Time: 03:28:54
(UTC+00:00)

A-11 Canister half - All Passes

Search period start: 13 June 2021 00:00
Search period end: 23 June 2021 00:00
Orbit: 1527 x 1681 km, 47.3° (Epoch: 12 June)

Date Brightness Start Highest point End Pass type
(mag) Time Alt. Az. Time Alt. Az. Time Alt. Az.
13 Jun - 05:53:45 10° S 06:00:50 25° SE 06:07:51 10° E visible
13 Jun - 07:55:23 10° SW 08:04:42 74° SSE 08:13:59 10° ENE visible
13 Jun - 10:00:47 10° W 10:10:01 64° N 10:19:21 10° ENE visible
13 Jun - 12:06:41 10° WNW 12:16:00 68° NNE 12:25:29 10° E daylight
13 Jun - 14:11:54 10° WNW 14:21:08 64° SW 14:30:35 10° SE daylight
13 Jun - 16:18:40 10° W 16:24:49 19° SW 16:31:06 10° SSW daylight
14 Jun - 05:32:24 10° S 05:39:16 23° SE 05:46:02 10° E visible
14 Jun - 07:33:46 10° SW 07:43:04 72° SE 07:52:19 10° ENE visible
14 Jun - 09:39:04 10° W 09:48:20 65° NNW 09:57:39 10° ENE visible
14 Jun - 11:45:01 10° WNW 11:54:18 67° NNE 12:03:45 10° E daylight
14 Jun - 13:50:15 10° WNW 13:59:29 67° SW 14:08:58 10° SE daylight
14 Jun - 15:56:48 10° W 16:03:15 21° SW 16:09:49 10° S daylight
15 Jun - 05:11:05 10° S 05:17:41 22° SE 05:24:13 10° E visible
15 Jun - 07:12:08 10° SW 07:21:26 69° SE 07:30:40 10° ENE visible
15 Jun - 09:17:22 10° W 09:26:39 66° NNW 09:35:58 10° ENE visible
15 Jun - 11:23:20 10° WNW 11:32:37 66° NNE 11:42:02 10° E daylight
15 Jun - 13:28:35 10° WNW 13:37:51 69° SW 13:47:21 10° SE daylight
15 Jun - 15:34:58 10° W 15:41:39 22° SW 15:48:30 10° S daylight
16 Jun - 04:49:47 10° S 04:56:07 20° SE 05:02:23 10° E visible
16 Jun - 06:50:32 10° SW 06:59:48 66° SE 07:08:59 10° ENE visible
16 Jun - 08:55:40 10° W 09:04:57 67° NNW 09:14:16 10° ENE visible
16 Jun - 11:01:40 10° WNW 11:10:56 65° NNE 11:20:18 10° E visible
16 Jun - 13:06:56 10° WNW 13:16:13 72° SW 13:25:43 10° SE daylight
16 Jun - 15:13:09 10° W 15:20:05 24° SW 15:27:09 10° S daylight
17 Jun - 04:28:31 10° SSE 04:34:33 19° SE 04:40:31 10° E visible
17 Jun - 06:28:55 10° SW 06:38:11 64° SE 06:47:20 10° ENE visible
17 Jun - 08:33:57 10° W 08:43:16 68° NNW 08:52:35 10° ENE visible
17 Jun - 10:39:58 10° WNW 10:49:14 64° N 10:58:36 10° E visible
17 Jun - 12:45:17 10° WNW 12:54:35 75° SSW 13:04:04 10° SE daylight
17 Jun - 14:51:21 10° WNW 14:58:30 25° SW 15:05:48 10° S daylight
18 Jun - 04:07:18 10° SSE 04:12:59 18° SE 04:18:36 10° E visible
18 Jun - 06:07:20 10° SW 06:16:34 61° SE 06:25:40 10° ENE visible
18 Jun - 08:12:15 10° W 08:21:35 69° NNW 08:30:55 10° ENE visible
18 Jun - 10:18:18 10° WNW 10:27:32 63° N 10:36:52 10° E visible
18 Jun - 12:23:38 10° WNW 12:32:56 77° SSW 12:42:26 10° SE daylight
18 Jun - 14:29:34 10° WNW 14:36:55 27° SW 14:44:25 10° S daylight
19 Jun - 03:46:07 10° SSE 03:51:25 16° SE 03:56:39 10° E visible
19 Jun - 05:45:44 10° SW 05:54:56 59° SE 06:03:59 10° ENE visible
19 Jun - 07:50:32 10° W 07:59:54 70° NNW 08:09:14 10° ENE visible
19 Jun - 09:56:36 10° WNW 10:05:51 63° N 10:15:09 10° E visible
19 Jun - 12:01:58 10° WNW 12:11:18 80° SSW 12:20:47 10° SE daylight
19 Jun - 14:07:48 10° WNW 14:15:20 28° SW 14:23:01 10° S daylight
20 Jun - 03:24:59 10° SSE 03:29:51 15° SE 03:34:40 10° E visible
20 Jun - 05:24:09 10° SW 05:33:19 56° SE 05:42:20 10° ENE visible
20 Jun - 07:28:50 10° WSW 07:38:14 72° NNW 07:47:33 10° ENE visible
20 Jun - 09:34:55 10° WNW 09:44:09 62° N 09:53:26 10° E visible
20 Jun - 11:40:19 10° WNW 11:49:39 82° SSW 11:59:07 10° SE daylight
20 Jun - 13:46:03 10° WNW 13:53:45 30° SW 14:01:35 10° S daylight
21 Jun - 03:03:56 10° SSE 03:08:18 14° ESE 03:12:36 10° E daylight
21 Jun - 05:02:34 10° SSW 05:11:42 54° SE 05:20:40 10° ENE visible
21 Jun - 07:07:08 10° WSW 07:16:33 73° NNW 07:25:53 10° ENE visible
21 Jun - 09:13:13 10° WNW 09:22:27 61° N 09:31:43 10° E visible
21 Jun - 11:18:39 10° WNW 11:28:00 85° SSW 11:37:28 10° ESE visible
21 Jun - 13:24:19 10° WNW 13:32:09 32° SW 13:40:08 10° S daylight
22 Jun - 02:42:59 10° SSE 02:46:44 13° ESE 02:50:26 10° E daylight
22 Jun - 04:41:01 10° SSW 04:50:05 51° SE 04:58:59 10° ENE visible
22 Jun - 06:45:25 10° WSW 06:54:52 75° NNW 07:04:13 10° ENE visible
22 Jun - 08:51:31 10° WNW 09:00:46 61° N 09:10:01 10° E visible
22 Jun - 10:57:00 10° WNW 11:06:21 87° SSW 11:15:49 10° ESE visible
22 Jun - 13:02:35 10° WNW 13:10:34 33° SW 13:18:42 10° SSE daylight
